WD6AWP Weather Reports


Display with metric or nautical units.
time (UTC)temp
F
wind
direction
speed
MPH
gust
MPH
rain 1hr
in
rain 24hr
in
rain mn
in
humidity
%
barometer
mb
20260506004512 65 269 10.0 19.0 0.00 0.03 0.03 73 1014.1
20260506003011 66 275 14.0 21.0 0.00 0.03 0.03 72 1013.9
20260506001510 66 271 10.0 20.0 0.00 0.03 0.03 74 1014.1
20260506000010 66 258 11.0 19.0 0.00 0.03 0.03 71 1014.1
20260505234518 67 271 11.0 19.0 0.00 0.03 0.03 71 1014.1
20260505233015 67 268 13.0 19.0 0.00 0.03 0.03 69 1014.2
20260505231511 66 267 12.0 23.0 0.00 0.03 0.03 69 1014.2
20260505230009 66 266 10.0 20.0 0.00 0.03 0.03 71 1014.3
20260505224507 68 252 12.0 18.0 0.00 0.03 0.03 67 1014.4
20260505223010 68 236 11.0 18.0 0.00 0.03 0.03 67 1014.4
20260505221505 68 214 11.0 21.0 0.00 0.03 0.03 66 1014.7
20260505220008 68 284 6.0 17.0 0.00 0.03 0.03 68 1014.7
20260505214540 68 246 10.0 16.0 0.00 0.03 0.03 67 1014.8
20260505213002 68 232 5.0 16.0 0.00 0.03 0.03 68 1014.9
20260505211502 68 290 9.0 18.0 0.00 0.03 0.03 65 1015.1
20260505210003 68 223 6.0 14.0 0.00 0.03 0.03 65 1015.1
20260505204601 68 240 6.0 12.0 0.00 0.03 0.03 67 1015.1
20260505203055 68 226 5.0 11.0 0.00 0.03 0.03 68 1015.0
20260505201602 68 242 5.0 14.0 0.00 0.03 0.03 67 1015.1
20260505200101 68 278 6.0 12.0 0.00 0.03 0.03 66 1015.2
20260505194555 67 261 7.0 16.0 0.00 0.03 0.03 68 1015.3
20260505193046 67 227 5.0 14.0 0.00 0.03 0.03 68 1015.4
20260505191545 67 208 5.0 14.0 0.00 0.03 0.03 70 1015.5
20260505190049 67 227 5.0 15.0 0.00 0.03 0.03 69 1015.4
20260505184544 66 223 9.0 15.0 0.00 0.03 0.03 70 1015.5
20260505183048 65 242 7.0 15.0 0.00 0.03 0.03 71 1015.5
20260505181541 67 235 7.0 15.0 0.00 0.03 0.03 67 1015.3
20260505180038 67 232 6.0 14.0 0.00 0.03 0.03 69 1015.3
20260505174535 67 231 4.0 13.0 0.00 0.03 0.03 69 1015.2
20260505173039 65 198 5.0 15.0 0.00 0.03 0.03 71 1015.1
20260505171535 65 254 9.0 15.0 0.00 0.03 0.03 70 1014.9
20260505170034 65 271 8.0 15.0 0.00 0.03 0.03 72 1014.9
20260505164526 64 261 6.0 12.0 0.00 0.03 0.03 73 1014.7
20260505163026 64 248 8.0 14.0 0.00 0.03 0.03 73 1014.5
20260505161527 63 252 4.0 12.0 0.00 0.03 0.03 74 1014.4
20260505153016 61 285 4.0 9.0 0.00 0.03 0.03 83 1014.3
20260505151510 59 275 3.0 11.0 0.00 0.03 0.03 84 1014.2
20260505124600 55 279 0.0 0.0 0.00 0.03 0.03 93 1013.4
20260505123052 56 279 0.0 0.0 0.00 0.03 0.03 93 1013.5
20260505121550 56 279 0.0 0.0 0.00 0.03 0.03 93 1013.4
20260505120052 56 279 0.0 0.0 0.00 0.03 0.03 93 1013.3
20260505114548 57 279 0.0 0.0 0.00 0.03 0.03 93 1013.3
20260505113047 57 279 0.0 0.0 0.00 0.03 0.03 93 1013.2
20260505111547 57 279 0.0 4.0 0.00 0.03 0.03 93 1013.4
20260505101544 57 36 0.0 0.0 0.01 0.03 0.03 93 1013.5
20260505100042 57 36 0.0 4.0 0.03 0.03 0.03 92 1013.4
20260505094539 57 28 2.0 5.0 0.03 0.03 0.03 92 1013.5
20260505093036 57 323 0.0 3.0 0.03 0.03 0.03 92 1013.9
20260505091537 58 310 1.0 4.0 0.01 0.01 0.01 91 1014.0
20260505090036 58 313 1.0 5.0 0.00 0.00 0.00 90 1014.1
20260505084540 58 327 2.0 5.0 0.00 0.00 0.00 89 1014.2
20260505083030 58 109 0.0 0.0 0.00 0.00 0.00 88 1014.2
20260505081528 58 109 0.0 2.0 0.00 0.00 0.00 88 1014.2
20260505080026 58 106 1.0 3.0 0.00 0.00 0.00 87 1014.4
20260505074524 59 118 0.0 0.0 0.00 0.00 0.00 89 1014.6
20260505073033 59 292 0.0 0.0 0.00 0.00 0.00 86 1014.7
20260505071519 59 292 0.0 0.0 0.00 0.00 0.00 86 1014.7
20260505070026 59 292 0.0 0.0 0.00 0.00 0.00 86 1014.8
20260505064514 59 292 0.0 0.0 0.00 0.00 0.00 84 1014.7
20260505063014 59 292 0.0 0.0 0.00 0.00 0.00 84 1014.6
20260505061519 59 292 0.0 0.0 0.00 0.00 0.00 84 1014.6
20260505060012 59 292 0.0 4.0 0.00 0.00 0.00 84 1014.8
20260505054511 60 284 3.0 7.0 0.00 0.00 0.00 83 1015.0
20260505053111 60 278 2.0 8.0 0.00 0.00 0.00 82 1014.9
20260505051515 60 271 2.0 6.0 0.00 0.00 0.00 83 1015.0
20260505041506 59 279 0.0 8.0 0.00 0.00 0.00 86 1015.2
20260505040006 59 259 6.0 10.0 0.00 0.00 0.00 86 1015.0
20260505034501 59 276 6.0 11.0 0.00 0.00 0.00 86 1014.9
20260505033104 60 271 7.0 15.0 0.00 0.00 0.00 85 1014.9
20260505031606 60 306 7.0 13.0 0.00 0.00 0.00 85 1014.8
20260505030103 61 252 6.0 12.0 0.00 0.00 0.00 82 1014.7
20260505024604 61 281 9.0 16.0 0.00 0.00 0.00 81 1014.7
20260505023054 61 257 9.0 15.0 0.00 0.00 0.00 82 1014.6
20260505021555 62 277 9.0 15.0 0.00 0.00 0.00 82 1014.6
20260505020052 62 273 9.0 15.0 0.00 0.00 0.00 80 1014.5
20260505014605 62 268 8.0 19.0 0.00 0.00 0.00 79 1014.5
20260505013052 63 250 9.0 22.0 0.00 0.00 0.00 79 1014.7
20260505011557 64 275 8.0 17.0 0.00 0.00 0.00 77 1014.7
20260505010048 64 287 10.0 16.0 0.00 0.00 0.00 75 1014.7